Theta_e
359 359 360 359 359 359 362 360 359 360 361 358 355 353 348 348 343 340 340 343 341 346 346 343 354 357 358 360 357 358 361 356 355 357 360 360 361 352 345 346 346 346 346 345 345 347 347 348 348 350 351 351 351 350 349 349 349 350 350 350 350 350 349 347 346 346 347 346 345 344 344 344 344 343
362 360 359 359 357 361 361 360 360 362 363 360 359 357 356 354 347 345 340 342 346 345 347 345 346 363 363 360 359 358 361 355 358 357 358 357 359 350 345 345 344 345 344 343 342 343 344 345 345 347 348 349 349 349 348 348 348 349 348 348 349 349 349 347 346 345 346 345 344 344 344 343 343 343
362 363 360 361 359 361 361 361 360 362 362 361 360 359 359 358 355 351 347 342 348 349 346 347 348 350 362 356 354 356 359 359 358 358 359 360 354 350 355 345 344 343 342 341 341 341 341 341 341 342 343 344 345 345 346 346 347 347 347 348 348 348 348 346 344 345 346 344 343 343 344 343 342 342
362 364 363 363 363 362 362 361 361 361 364 364 361 361 359 358 358 355 351 347 345 351 348 349 352 352 354 358 358 360 359 356 356 361 358 361 355 359 358 350 344 343 341 341 340 339 338 336 338 340 341 341 342 343 344 344 345 344 345 345 345 345 345 343 344 344 344 344 343 343 342 342 342 342
364 365 365 364 365 366 363 361 360 359 362 365 362 362 361 358 359 357 354 350 350 355 357 354 353 355 357 353 356 357 357 359 360 358 361 361 359 359 358 357 347 342 341 340 339 338 337 336 337 338 339 340 341 341 341 341 340 339 341 342 340 341 342 342 343 344 344 344 343 343 342 342 342 342
364 366 367 366 364 366 365 362 360 360 358 360 360 361 360 358 360 362 357 354 353 352 357 355 358 356 359 356 362 358 356 357 360 358 361 362 361 360 359 357 356 343 342 340 338 337 336 335 335 336 337 338 339 339 339 338 336 337 339 338 337 338 338 339 341 342 342 342 343 342 342 341 340 340
365 364 366 365 365 363 364 366 364 362 361 360 360 360 361 361 360 362 363 358 354 353 353 358 356 357 358 358 359 362 361 362 362 361 359 356 358 362 362 360 356 345 341 340 338 337 336 335 334 334 335 336 336 336 336 334 334 335 334 333 334 335 336 336 337 340 341 340 342 342 342 340 339 339
364 364 365 364 363 363 364 366 364 364 364 363 363 362 363 363 362 363 363 364 360 357 354 357 356 357 356 357 361 361 363 361 361 361 361 361 360 358 358 360 360 353 342 339 338 338 337 335 334 333 333 333 332 332 332 332 331 330 331 331 331 331 331 331 332 336 337 337 337 340 340 340 339 338
365 365 364 364 365 365 364 365 364 364 366 366 365 364 364 364 364 365 365 364 363 358 356 358 362 363 363 363 364 365 361 361 362 364 363 362 362 362 360 359 358 348 343 340 338 337 336 336 334 333 332 331 330 330 330 329 328 328 328 326 326 328 329 328 329 331 333 333 332 334 337 337 336 334
366 365 365 365 365 364 364 364 364 366 366 367 366 366 365 365 366 365 363 362 360 358 356 357 356 361 360 362 364 365 363 360 360 362 363 365 364 364 362 360 358 358 357 356 353 343 339 337 333 334 333 331 330 329 329 329 328 326 324 322 323 327 326 325 327 328 328 329 328 329 333 334 334 333
365 365 365 366 366 365 366 364 363 365 366 366 367 368 368 368 366 362 362 362 359 358 356 356 357 357 360 361 357 362 365 362 360 358 358 357 362 363 362 361 363 362 360 353 345 347 348 345 345 335 329 331 331 330 328 327 326 325 323 321 321 321 322 324 324 324 326 327 327 327 326 327 330 332
362 362 363 363 364 366 368 368 367 366 364 366 366 367 369 368 365 362 360 361 359 357 356 355 355 356 356 357 358 359 361 358 358 360 359 356 356 358 362 363 360 362 362 361 360 349 346 344 342 336 334 332 331 330 330 330 331 328 324 322 325 324 321 321 322 323 323 324 324 325 325 324 326 328
365 364 361 361 361 365 370 366 365 365 365 366 365 368 369 367 365 362 361 360 359 357 356 355 356 353 353 354 355 353 353 354 354 360 361 359 360 360 360 363 365 363 360 360 358 359 360 359 360 360 358 355 341 338 333 338 335 331 326 324 325 325 323 321 321 322 322 322 322 322 324 323 322 323
363 364 363 360 366 364 366 361 352 347 346 347 356 361 364 365 364 362 360 359 358 356 353 353 353 352 352 352 355 353 355 358 360 358 361 357 359 361 359 360 362 365 362 359 358 359 363 360 360 360 358 358 358 354 349 346 343 334 328 327 326 325 324 322 320 320 321 320 321 320 320 321 321 321
364 363 363 365 366 368 359 361 345 344 341 341 340 340 343 351 363 362 359 359 357 355 354 354 354 352 353 355 357 358 356 359 359 359 360 359 358 356 353 351 360 367 365 362 358 358 362 363 358 359 359 359 360 359 358 340 335 332 330 328 328 327 326 325 323 320 319 320 321 320 319 319 320 320
365 363 362 362 364 365 367 368 369 353 339 336 336 335 335 336 337 341 356 359 358 358 355 353 354 356 356 357 360 358 358 359 360 361 360 360 358 356 354 354 354 362 365 361 356 355 362 361 359 357 359 360 361 359 348 339 330 331 331 330 327 326 326 326 326 324 321 321 323 322 321 320 320 319
367 366 364 364 363 364 368 365 366 369 368 339 330 332 334 335 334 332 331 334 354 360 358 356 355 356 357 358 360 362 362 364 361 361 359 360 360 360 357 356 357 361 367 361 357 353 358 361 358 356 358 359 359 358 342 336 332 329 331 330 330 328 327 325 325 325 324 322 321 320 319 320 320 319
367 367 367 365 365 367 367 368 367 368 368 369 365 357 356 359 353 334 329 329 328 337 354 357 357 360 363 359 362 365 367 363 360 360 357 360 359 359 358 362 362 363 363 358 355 353 355 359 358 355 357 358 359 361 349 337 331 328 328 329 329 327 326 326 324 324 323 323 322 319 317 317 317 316
367 368 367 368 366 367 369 369 368 369 371 370 367 365 363 365 367 368 364 356 354 352 351 356 359 361 363 363 364 365 366 366 365 364 362 361 361 360 362 361 361 359 363 361 357 350 355 360 356 356 357 355 356 359 345 338 331 329 327 327 328 327 327 326 325 323 322 322 321 319 317 315 315 315
368 369 368 368 368 369 369 359 343 350 367 366 365 363 363 362 363 363 358 347 350 363 364 363 363 363 362 348 366 367 363 364 365 362 361 361 359 357 354 352 355 356 362 362 357 353 353 358 353 354 357 356 355 358 360 344 332 329 327 328 327 326 325 325 324 323 322 321 321 319 316 314 313 313
367 368 370 369 367 367 369 354 338 333 343 365 363 362 360 360 362 361 365 346 333 334 334 334 336 336 335 334 330 329 329 344 352 357 353 351 353 351 350 350 351 353 359 359 359 353 350 355 354 351 353 354 353 354 355 357 337 327 327 326 326 324 323 323 322 322 322 321 320 319 317 314 312 314
367 369 362 367 368 367 369 345 333 330 346 365 363 360 358 359 359 360 361 361 360 330 328 329 330 330 330 329 328 328 327 327 331 349 348 355 356 352 351 348 349 351 354 355 356 352 348 351 353 350 351 352 352 352 354 354 352 329 326 323 324 323 323 321 321 321 321 320 320 318 316 314 313 319
366 367 363 356 354 358 357 336 331 328 345 364 364 362 361 357 358 361 363 362 363 367 367 366 359 353 340 347 353 355 334 329 333 348 353 357 356 350 348 347 347 346 347 354 358 349 348 349 351 349 346 344 349 352 353 355 356 357 352 342 336 323 321 320 319 317 318 319 318 318 315 313 314 322
365 366 368 361 332 330 330 328 325 323 325 359 364 364 360 358 357 363 364 365 366 365 363 364 365 365 367 366 366 367 366 357 352 355 358 359 357 352 350 349 347 343 344 352 354 350 349 351 347 350 347 341 338 345 351 352 354 355 356 354 348 332 325 323 322 317 316 315 316 316 315 312 314 323
362 364 365 367 340 324 324 323 321 320 318 328 358 362 361 361 363 356 364 362 361 363 364 364 363 363 364 364 364 364 362 357 356 357 361 360 357 353 349 347 345 344 346 350 346 354 347 348 346 347 346 346 344 343 347 350 353 353 355 354 351 351 347 340 334 337 319 314 313 313 313 312 312 321
363 364 364 367 348 321 321 319 317 315 317 317 345 356 332 330 330 357 358 360 360 360 360 360 359 360 359 359 359 355 353 352 352 353 353 352 351 351 350 348 345 343 344 352 339 351 347 344 344 343 343 342 341 341 339 342 346 349 353 353 352 351 351 347 342 340 340 332 327 318 319 312 313 315
363 366 368 366 353 320 315 313 313 313 313 319 339 324 322 321 322 337 353 356 356 357 358 358 356 355 356 354 351 353 352 351 354 350 349 349 349 351 351 352 351 347 347 350 350 348 346 343 345 342 339 340 338 337 338 337 340 346 348 349 350 350 351 352 347 343 343 337 334 319 314 312 312 313
360 365 368 365 336 316 308 308 311 312 314 338 326 318 318 323 330 346 354 353 356 355 353 352 353 356 353 353 352 350 352 347 349 348 349 350 350 349 348 349 346 348 348 346 346 346 344 342 341 342 341 338 336 334 333 338 339 340 340 347 348 347 347 347 348 347 343 338 333 327 323 319 317 316
364 328 313 312 314 314 310 310 312 314 314 308 314 317 320 332 350 353 355 356 357 355 351 352 354 352 353 351 351 353 351 350 351 351 349 349 348 348 348 348 347 346 345 344 345 344 343 342 341 341 339 339 336 334 334 335 337 339 340 341 341 346 347 347 347 347 344 340 335 326 322 321 318 319
315 311 310 308 311 315 324 354 360 361 360 319 319 320 329 349 354 356 356 356 353 353 354 350 348 347 347 347 349 349 351 349 346 346 345 343 343 343 341 339 341 343 343 343 343 342 342 341 338 338 337 337 336 334 336 335 335 338 340 339 339 342 343 343 343 344 342 338 336 333 328 325 321 320
348 344 346 342 324 328 327 333 335 342 335 344 342 346 348 354 355 355 354 355 354 350 349 344 344 345 345 348 348 346 345 345 344 345 340 339 338 338 337 336 337 337 340 342 340 340 340 340 339 338 334 335 336 338 339 337 335 336 339 341 341 336 341 343 344 342 341 339 336 334 332 326 323 322
355 354 332 336 356 354 353 353 355 357 359 356 356 358 357 354 353 347 341 339 345 347 347 345 345 345 347 344 341 341 340 340 339 342 338 336 336 335 335 334 334 334 336 337 337 339 338 338 336 336 336 335 334 337 339 338 337 338 339 340 342 343 343 341 340 342 343 341 335 331 328 324 322 319
355 355 353 352 352 353 351 352 354 355 356 355 355 356 354 351 348 346 345 346 347 347 343 344 342 340 341 341 340 337 337 338 337 340 337 338 335 336 335 332 332 331 330 331 334 335 336 333 335 333 333 335 336 336 337 334 332 330 328 329 333 334 336 341 342 341 344 337 331 329 325 324 322 320
355 354 354 353 351 352 353 352 352 352 350 348 345 344 331 336 340 341 341 342 343 343 341 341 340 341 337 338 336 336 333 335 335 335 330 335 336 333 332 331 331 332 331 331 331 330 330 331 330 332 334 334 336 340 333 330 326 324 323 325 327 329 334 337 338 340 340 333 330 324 320 319 319 320
355 355 352 352 353 352 353 352 351 346 343 338 339 339 336 339 338 334 340 341 340 338 339 339 338 337 336 336 334 332 332 333 333 335 335 334 334 332 330 330 330 330 330 329 328 329 328 327 326 325 327 328 329 335 328 329 325 321 321 321 323 323 325 331 334 335 335 332 329 322 318 316 315 319
354 355 354 353 352 350 346 344 342 340 340 339 339 339 339 338 340 340 341 338 340 339 339 337 334 335 335 334 333 332 331 329 333 332 331 331 330 330 330 330 329 330 330 330 328 329 327 325 324 321 320 321 321 320 324 324 322 321 316 316 319 321 324 327 330 331 331 327 326 321 315 312 313 315
352 348 344 342 343 343 341 339 339 340 340 340 340 340 340 339 339 341 340 337 339 337 334 337 335 334 334 332 331 329 330 331 331 331 331 330 330 330 328 328 328 329 328 329 330 329 328 326 324 321 318 317 317 316 318 326 318 315 316 314 317 320 323 325 326 325 324 324 324 321 317 314 312 314
346 347 342 338 337 338 337 337 337 338 338 339 340 340 340 342 341 340 340 339 336 338 335 335 334 333 335 332 332 331 332 331 331 331 329 331 328 330 328 327 327 326 327 328 329 328 328 325 323 322 320 317 316 315 314 318 320 318 310 313 316 320 324 323 320 319 318 319 317 317 318 314 314 315
343 338 336 335 334 335 336 337 337 337 338 338 338 338 339 340 338 339 338 336 336 335 335 335 336 333 332 334 331 333 330 329 330 329 331 329 328 328 326 326 326 326 327 326 327 328 327 325 324 323 321 319 317 317 319 316 315 318 315 306 313 320 321 320 318 319 317 315 315 317 317 318 317 316
339 338 335 333 333 334 334 335 335 335 335 336 337 338 338 338 337 337 336 335 335 334 336 335 332 330 335 332 331 331 331 331 329 330 329 330 326 328 325 327 326 326 326 324 324 325 326 325 324 323 322 322 323 324 323 321 319 319 318 315 304 311 319 320 318 317 315 315 315 313 312 313 312 316
336 335 334 334 335 335 334 334 334 334 335 335 336 330 337 336 337 337 335 333 334 335 334 335 334 334 335 333 334 330 331 329 329 329 329 329 327 325 323 321 327 326 324 323 324 324 324 327 327 322 327 327 326 326 320 316 313 313 314 315 310 307 306 312 318 318 316 317 317 314 312 311 311 313
333 333 333 335 334 335 334 334 335 334 334 334 335 334 334 334 333 327 329 328 335 334 334 333 333 334 332 334 332 329 332 329 328 328 328 327 327 326 324 324 325 325 323 323 323 324 327 330 329 328 327 325 321 317 314 313 313 313 314 315 317 313 308 307 309 310 316 319 317 314 313 314 315 313
331 331 331 330 331 332 332 332 333 333 332 333 333 334 333 334 333 332 333 333 333 332 332 332 331 331 332 332 332 332 330 329 329 330 330 329 327 326 325 324 325 326 325 325 325 325 326 328 328 325 324 322 320 318 315 315 315 315 314 314 315 317 317 312 310 309 309 310 312 318 321 316 312 308
325 324 324 324 324 324 325 325 325 327 328 330 331 332 331 332 333 333 333 332 332 332 332 331 331 330 331 331 332 333 332 328 328 329 327 327 329 328 326 324 324 327 326 324 324 325 325 324 325 323 321 319 320 317 316 316 315 315 315 316 317 317 315 317 318 314 312 310 309 310 310 312 314 315
322 321 319 319 319 319 320 321 321 322 323 326 327 327 328 329 329 330 331 331 331 331 330 331 331 331 331 330 331 329 329 324 326 328 327 327 328 327 328 326 323 325 325 325 323 323 324 324 324 324 322 320 319 318 317 316 315 315 315 315 315 316 316 316 315 314 314 314 310 309 310 311 312 312
Wind_Speed
7 7 7 6 5 5 4 4 4 4 3 4 4 4 5 4 6 6 6 5 5 4 4 4 5 4 3 3 3 4 5 5 6 7 8 8 9 11 17 17 17 17 17 17 18 18 18 19 19 18 18 18 18 19 18 18 18 17 17 16 16 15 15 14 13 12 11 12 12 12 12 11 10 10
7 7 7 6 6 5 6 5 5 5 5 5 5 5 5 5 6 6 7 7 6 5 5 6 3 6 5 5 5 5 6 5 7 7 8 9 9 12 14 16 17 17 17 18 18 18 18 19 19 19 19 19 19 20 20 19 19 19 18 17 17 16 16 15 14 13 11 13 13 13 13 12 11 11
7 8 8 7 6 5 6 6 6 5 5 6 5 5 5 5 6 6 6 8 6 4 4 4 5 3 5 6 6 5 6 6 8 8 8 9 12 11 10 14 16 16 17 18 18 19 19 19 19 19 19 19 20 20 20 20 20 20 19 19 18 17 17 16 15 15 11 12 14 14 14 13 12 12
7 8 8 8 7 6 6 6 6 6 6 6 6 6 6 6 6 6 7 8 10 7 8 8 7 9 8 7 8 8 7 7 11 9 9 10 10 9 11 14 17 17 18 19 19 20 20 20 20 20 20 20 20 20 21 21 20 20 20 20 19 18 18 17 17 16 15 13 14 15 15 14 13 13
8 8 8 8 8 7 7 7 7 7 7 7 7 6 6 7 7 7 8 9 10 8 7 8 8 8 9 9 8 9 9 9 8 10 10 11 10 10 10 10 16 20 20 20 20 21 21 21 21 21 21 21 21 22 22 22 21 20 21 21 20 19 18 18 17 17 16 14 14 15 15 14 14 14
8 8 9 9 9 8 9 8 8 8 7 7 7 7 7 7 7 7 8 9 9 10 7 8 8 9 8 9 9 10 11 10 8 10 9 8 10 10 10 10 10 18 20 21 22 22 21 22 22 23 23 23 23 23 23 23 22 22 22 21 20 19 19 18 18 18 17 16 15 16 16 15 15 15
9 9 9 9 8 7 9 9 9 8 8 7 7 8 7 8 8 8 8 8 9 11 9 8 9 8 8 9 9 9 9 9 9 10 10 10 9 9 11 10 10 12 18 21 21 22 21 21 22 22 22 23 23 23 23 23 22 22 22 21 20 20 19 19 19 19 18 18 17 17 16 16 15 15
10 10 10 9 9 8 8 8 8 8 8 8 7 8 8 8 9 8 8 9 9 9 10 8 9 8 9 9 10 9 9 10 10 9 9 10 11 11 11 12 11 12 13 18 20 22 22 21 21 21 22 22 22 22 23 22 21 21 21 20 20 20 20 20 20 20 19 18 18 19 19 17 16 15
10 10 10 10 9 8 9 8 8 8 9 8 8 8 8 8 8 7 7 8 9 10 11 10 8 8 9 9 10 9 10 10 10 10 10 10 10 11 12 11 11 13 16 17 22 22 21 21 20 21 22 21 22 22 22 21 21 21 21 21 21 21 20 20 20 19 20 19 19 20 19 19 18 16
10 10 11 10 10 9 9 9 8 8 9 9 9 9 8 7 7 8 9 9 9 10 11 10 10 8 9 8 8 9 10 11 10 10 10 10 10 10 10 11 10 9 9 8 11 14 17 19 19 20 20 21 21 21 21 21 20 20 20 21 21 21 21 21 20 19 19 20 21 21 19 18 18 17
11 11 11 10 10 10 10 10 10 9 9 8 9 9 8 8 8 8 8 8 10 10 11 10 10 9 8 8 10 7 9 10 10 11 12 12 9 9 10 10 9 9 11 13 15 15 14 14 13 18 23 22 22 22 21 21 21 20 21 21 21 22 21 20 18 21 23 23 21 21 20 21 19 18
11 11 11 12 11 11 10 10 10 9 8 7 8 8 8 8 8 8 8 8 9 9 10 9 9 9 9 9 9 9 9 10 10 9 11 13 12 12 10 10 11 11 13 13 12 11 15 17 19 19 17 20 21 23 22 23 22 22 22 21 23 22 21 20 22 25 23 22 21 21 22 20 19 18
11 11 11 11 12 10 10 11 9 8 6 6 7 7 7 8 8 8 8 8 8 9 9 9 9 10 10 9 9 10 10 10 11 9 9 10 10 11 12 10 9 8 11 13 14 12 11 13 12 9 10 11 19 20 23 19 22 22 20 23 24 24 22 23 25 25 24 22 22 22 22 21 20 19
11 11 11 11 12 9 8 9 11 12 12 11 11 9 8 8 9 9 9 9 9 9 10 10 10 10 10 10 10 11 11 11 11 11 8 11 11 10 11 10 9 7 9 12 14 14 11 14 14 13 12 12 10 11 13 13 14 14 22 23 23 21 21 25 25 24 22 22 23 23 23 22 21 21
10 10 11 11 10 10 10 11 13 13 14 15 15 16 15 12 11 10 11 11 10 10 11 11 11 11 12 11 11 11 12 11 11 10 10 11 12 11 12 15 8 5 7 9 11 13 10 12 14 15 15 15 15 14 14 12 16 20 22 23 23 22 24 26 24 22 22 23 24 24 23 23 23 23
10 11 10 10 9 10 11 10 11 14 16 16 16 17 16 16 17 15 13 12 11 12 12 12 11 11 11 11 11 11 11 11 11 12 12 13 13 13 14 13 12 10 10 10 12 16 9 11 14 16 14 13 13 15 15 11 17 21 22 23 22 22 24 24 24 22 23 23 23 24 24 24 24 24
10 10 9 9 9 9 10 10 11 10 10 16 20 18 18 17 16 17 18 17 14 13 14 14 13 11 11 12 11 11 12 12 14 12 11 11 11 10 11 13 14 12 10 11 10 16 16 12 12 15 15 14 13 12 13 15 15 21 23 24 22 20 21 22 22 22 22 23 23 23 24 25 25 24
11 11 10 10 10 10 9 10 10 10 11 8 9 10 10 11 14 17 19 19 19 17 14 15 15 14 12 13 12 12 12 14 14 12 12 12 14 13 13 14 13 14 11 13 12 14 17 13 13 16 15 12 13 11 12 12 16 21 23 24 23 22 21 21 21 21 22 23 23 23 24 25 25 25
11 11 11 11 11 10 10 9 9 10 9 9 9 10 10 10 10 10 11 13 12 11 12 13 15 15 14 14 13 12 11 12 11 11 14 14 15 15 17 15 14 14 11 12 11 16 15 13 14 14 15 15 14 13 13 11 16 20 23 23 24 24 23 20 19 21 22 22 23 24 24 24 24 24
11 11 12 11 12 11 11 11 11 10 10 10 10 10 11 11 12 12 12 12 10 10 10 10 11 11 11 10 10 11 12 13 14 14 13 11 14 15 15 16 15 15 12 12 13 14 15 13 15 14 13 13 14 14 13 17 13 19 22 23 24 24 23 21 19 20 21 22 23 23 23 23 23 24
12 12 12 12 11 12 12 12 11 12 10 11 11 11 12 11 11 11 10 10 15 16 18 20 18 16 14 14 15 15 16 13 12 10 11 14 13 13 13 16 16 16 11 11 11 13 15 13 14 15 15 15 14 15 15 14 12 19 21 23 24 24 23 22 21 20 21 22 22 23 23 23 23 24
11 12 15 14 13 13 12 12 10 11 10 10 11 12 12 12 12 11 10 10 8 16 16 14 15 14 14 14 16 16 17 17 11 7 11 13 13 12 11 13 14 15 12 12 10 11 14 14 13 15 15 14 13 13 13 13 10 12 18 23 24 24 24 23 21 20 20 22 22 23 23 23 22 16
11 12 12 15 15 14 13 13 10 9 9 10 10 11 11 12 12 10 10 10 11 7 5 5 6 7 11 12 10 11 18 20 16 10 11 11 12 13 14 14 14 15 11 8 9 11 13 13 13 14 14 14 12 12 11 8 10 9 5 10 13 20 22 23 21 18 19 21 22 23 23 23 20 12
11 11 11 12 17 19 18 17 15 12 9 9 10 10 11 11 11 10 10 8 7 8 7 9 11 11 9 9 8 8 9 11 12 11 10 10 10 12 12 12 13 14 13 11 12 12 13 13 15 13 14 16 16 11 12 13 11 10 10 7 9 14 19 20 17 19 18 19 21 22 23 22 21 12
11 10 10 10 13 19 19 19 18 16 13 9 9 10 11 11 9 8 9 11 12 11 10 9 8 8 8 8 8 9 9 8 6 6 9 9 10 10 12 13 13 14 13 10 10 9 13 14 15 13 13 13 15 17 13 13 10 10 10 10 9 9 8 11 11 10 14 18 18 21 22 23 27 19
10 10 9 9 9 16 17 17 16 16 14 11 7 9 12 14 12 7 8 8 9 10 10 10 9 9 8 8 9 8 7 7 5 6 7 8 9 10 11 11 11 13 13 12 12 11 13 13 13 13 13 13 15 14 16 13 11 11 10 9 10 11 10 10 9 10 10 10 12 17 20 27 28 29
10 9 9 8 8 12 14 14 14 13 12 6 8 12 13 10 6 5 7 8 9 9 9 8 8 7 8 8 7 6 5 5 6 8 8 9 9 9 10 10 10 11 12 13 12 12 11 12 11 13 14 14 16 16 13 14 12 11 10 10 10 9 7 8 10 11 10 8 9 14 17 19 25 28
10 10 10 5 6 12 11 11 10 9 7 6 8 6 5 4 4 5 6 7 7 7 7 7 7 7 6 6 5 4 4 6 7 8 8 7 8 9 9 10 10 10 12 12 12 11 11 12 13 11 13 14 15 15 17 14 14 13 13 9 9 10 10 10 10 8 7 5 6 8 11 11 12 15
6 8 13 13 10 8 7 6 4 3 6 8 2 3 4 4 4 5 5 6 5 5 6 7 7 6 4 3 4 4 5 6 7 6 6 6 8 8 8 9 10 10 9 8 9 11 11 12 12 13 12 11 13 14 13 15 14 14 12 12 12 7 7 9 10 10 8 8 9 9 12 14 14 14
11 9 11 11 10 8 6 4 3 5 2 7 7 7 6 4 6 7 6 5 5 6 6 5 4 4 4 4 4 5 5 5 4 5 6 7 7 6 7 8 8 8 8 8 9 10 10 10 11 12 13 13 13 14 14 15 14 13 12 12 13 10 7 9 10 10 8 9 12 12 11 14 15 16
2 6 2 5 7 7 6 4 5 4 8 5 6 7 7 6 6 5 6 7 6 4 3 3 3 3 3 3 3 3 4 4 4 5 7 7 7 7 7 8 9 8 8 8 8 9 10 10 10 12 12 12 12 13 14 15 16 14 14 12 11 12 9 8 9 10 9 8 12 12 10 11 10 15
9 5 7 7 4 3 4 5 6 7 7 7 7 6 4 4 4 3 7 3 2 3 3 3 2 3 2 3 3 4 4 5 5 5 6 6 7 7 8 8 8 8 9 8 8 8 10 10 11 11 11 12 13 13 13 14 15 15 15 14 12 12 11 10 9 9 10 9 8 8 9 12 11 12
9 9 7 7 9 9 9 8 8 8 7 5 5 5 4 3 4 6 6 4 3 1 2 1 2 2 2 2 3 4 4 4 5 4 5 5 6 7 7 8 8 8 9 9 8 9 10 11 11 12 12 12 12 13 11 10 12 13 14 14 13 11 12 10 9 9 4 5 7 8 9 8 9 11
9 10 9 10 10 9 9 9 9 7 6 6 4 4 1 2 3 2 2 2 2 1 1 2 2 1 2 2 3 4 4 4 4 3 4 5 6 7 7 7 7 8 8 9 9 10 11 11 12 11 11 10 9 8 9 9 10 11 12 12 12 11 10 11 10 10 3 6 8 7 6 6 6 6
10 9 10 9 9 9 9 8 7 6 6 5 3 3 4 4 3 2 2 2 1 1 1 0 1 1 2 2 3 3 3 4 5 4 4 4 5 6 6 7 7 8 9 9 9 9 10 12 12 13 11 10 8 5 13 12 12 13 13 13 13 13 12 11 10 9 5 6 5 6 6 6 7 6
9 9 8 6 5 5 5 6 5 6 6 5 5 4 4 4 3 2 3 2 1 1 1 1 1 1 1 2 2 3 3 4 4 4 4 4 5 6 6 7 7 8 8 8 8 9 10 11 12 13 13 12 11 10 6 17 17 12 13 14 14 13 11 11 9 8 6 5 5 7 9 9 10 9
8 6 7 7 6 7 6 5 5 5 4 5 4 3 3 3 3 3 4 2 2 0 2 1 0 1 1 1 2 3 3 3 3 3 4 4 5 5 6 7 7 7 7 7 7 8 9 11 12 12 13 13 13 13 13 11 10 14 12 12 13 11 10 8 8 6 6 3 3 3 6 9 10 10
10 10 10 9 9 7 6 5 4 4 4 3 3 3 2 2 3 3 2 2 1 1 2 1 1 1 2 1 2 2 3 2 2 3 3 4 5 5 6 6 6 7 8 7 8 8 8 9 11 10 11 12 13 14 16 14 13 10 18 12 11 12 9 8 6 6 6 6 7 7 7 9 9 9
7 6 3 4 6 8 8 6 5 4 4 4 3 3 3 3 3 3 3 2 1 0 1 1 1 1 2 2 2 2 2 3 3 3 3 3 4 4 5 5 5 6 7 8 8 7 8 9 11 11 11 11 11 11 10 11 12 12 14 19 12 10 8 7 6 5 6 8 10 10 10 10 12 15
8 8 6 5 4 5 6 5 5 4 4 4 3 2 2 3 2 3 3 2 2 1 2 1 1 3 3 1 2 2 1 1 2 2 3 3 3 4 5 5 5 6 6 7 8 7 8 9 10 10 9 8 8 7 7 7 8 9 11 15 20 13 9 8 7 6 7 8 10 12 11 10 11 9
9 8 7 6 6 6 5 5 5 5 4 4 3 2 1 1 1 2 2 2 1 2 2 1 1 3 2 2 2 3 2 2 2 2 3 2 2 3 4 6 4 5 6 6 7 7 8 8 5 7 3 8 8 7 8 10 11 11 11 12 14 18 19 15 9 6 7 7 8 9 10 10 11 11
8 7 6 6 6 6 5 5 4 4 4 4 3 4 3 3 2 1 4 3 3 2 2 3 2 3 2 2 2 2 2 2 2 2 2 3 3 2 2 3 4 5 5 5 6 6 5 6 7 8 9 8 9 9 10 10 9 9 9 7 10 12 15 18 20 18 12 6 6 9 10 10 8 9
8 8 7 7 6 6 6 6 5 4 4 2 2 1 3 4 5 7 6 3 2 6 5 1 3 3 3 3 2 3 3 2 2 2 2 2 3 3 3 3 4 5 4 4 3 4 4 5 5 6 7 8 8 8 8 8 8 7 7 7 8 7 8 12 16 19 20 21 14 8 4 6 9 10
7 8 7 7 7 7 7 7 6 5 4 3 2 1 1 3 3 3 2 2 4 4 2 4 4 4 4 3 4 4 3 2 3 2 3 2 3 3 3 3 4 4 4 4 4 4 5 5 5 6 7 8 8 8 8 7 7 7 6 6 5 6 8 7 8 11 14 18 19 14 17 15 12 10
7 7 7 7 7 6 6 6 5 5 4 3 3 2 2 1 1 0 2 2 2 3 4 5 5 5 4 4 4 5 3 2 5 4 3 4 3 3 3 2 4 5 3 4 5 5 6 6 6 6 6 7 6 6 5 6 5 5 5 6 6 7 7 6 7 9 10 10 15 15 15 15 15 15
Wind_Direction
237 229 228 234 241 247 244 247 247 248 254 252 253 256 266 273 282 288 295 291 294 288 276 268 156 187 214 234 231 214 235 237 225 237 234 237 245 208 204 210 215 217 219 222 224 225 226 228 229 230 231 231 231 232 233 234 236 238 239 240 242 242 242 243 241 238 230 232 231 230 231 230 228 230
239 244 236 224 233 232 235 232 238 238 225 237 238 242 244 244 258 277 288 292 289 286 268 255 204 170 209 211 226 241 242 204 211 244 247 246 245 236 205 211 216 219 222 224 226 226 227 227 228 229 230 231 232 233 233 233 234 236 237 239 240 239 240 240 237 234 224 226 226 228 227 228 227 224
236 238 240 238 241 239 242 250 242 232 227 234 243 247 250 247 249 261 268 281 274 280 287 289 304 240 197 240 256 250 242 212 212 243 245 242 244 247 224 213 219 222 224 227 228 230 230 230 230 229 229 229 230 231 232 233 233 234 235 237 237 237 236 236 234 233 220 219 222 223 225 226 223 218
232 235 236 235 237 234 238 241 242 240 233 237 240 239 243 244 245 250 257 260 272 274 284 288 280 268 260 244 249 256 257 248 200 241 244 245 240 237 247 221 216 221 225 228 230 230 232 232 231 231 230 230 230 230 231 232 233 233 234 234 235 234 233 232 231 230 227 217 218 218 222 223 219 214
236 237 239 238 234 237 240 238 240 240 232 229 235 236 233 237 235 235 245 256 268 268 261 268 272 278 282 273 257 255 256 257 244 228 243 245 245 245 246 249 214 216 222 227 230 232 232 232 232 233 233 232 231 231 231 231 231 231 232 232 232 231 230 228 228 227 225 216 212 214 217 219 217 213
239 237 239 240 237 231 237 241 242 243 242 232 232 228 230 236 234 226 236 243 262 274 267 261 264 270 260 264 253 255 258 262 257 253 250 248 246 248 253 249 250 206 217 221 227 230 231 231 231 233 234 234 233 232 232 231 229 229 229 230 229 228 227 225 225 224 222 218 208 210 212 214 214 211
231 237 238 240 239 235 232 233 242 247 246 247 244 240 235 235 239 235 227 242 257 268 272 269 271 265 261 259 266 256 255 258 256 256 256 256 253 247 245 252 259 225 208 218 224 229 230 230 232 233 234 236 235 236 235 233 232 230 230 229 228 226 224 223 222 221 219 216 209 208 206 209 210 209
229 235 238 243 244 238 236 238 242 239 240 240 236 240 240 241 243 243 238 233 249 264 275 269 266 273 275 272 266 265 256 258 258 255 256 253 257 258 256 252 252 256 227 217 225 228 228 229 230 232 234 235 235 236 236 235 234 232 232 231 230 228 223 221 219 219 217 214 212 211 210 207 204 205
233 235 239 241 240 237 239 239 239 240 237 234 238 237 237 239 240 238 239 243 246 260 268 277 277 278 274 272 274 272 273 269 262 253 247 251 256 257 258 261 258 252 235 219 225 227 228 231 229 230 234 234 236 236 237 237 236 235 233 231 230 229 224 220 218 216 217 213 211 210 210 209 207 204
230 235 237 240 240 238 236 239 240 242 242 239 238 241 242 245 243 248 254 254 258 261 267 273 280 273 273 277 274 281 282 283 283 277 268 257 249 251 256 260 264 266 263 252 231 228 234 238 236 233 232 235 237 239 240 239 238 238 235 233 232 231 226 221 215 214 214 213 212 208 208 209 205 202
231 233 236 238 237 237 235 236 239 240 241 242 246 243 246 243 249 253 251 252 257 262 266 268 268 274 273 276 286 287 289 287 285 287 290 288 276 262 259 266 269 272 269 257 246 253 262 248 232 223 226 230 231 235 235 236 236 237 235 235 234 233 228 222 214 214 212 212 208 204 203 209 204 201
236 236 237 238 236 233 233 234 237 239 243 247 247 245 246 248 251 256 256 256 260 263 266 266 275 279 285 280 274 280 280 281 277 269 283 290 297 296 290 286 289 288 285 282 283 251 233 240 240 242 232 222 225 228 230 231 231 230 232 233 233 231 228 222 216 216 215 210 208 204 204 204 201 199
236 242 244 244 243 237 229 229 237 249 268 258 256 254 251 254 257 258 261 262 263 267 268 272 272 275 275 275 278 282 284 286 288 289 286 284 285 290 295 295 289 277 276 286 286 280 288 284 282 274 250 227 215 224 224 228 222 226 228 231 230 229 223 221 220 217 213 206 206 204 204 201 199 198
237 237 242 245 244 242 232 215 215 226 237 244 255 264 263 260 259 258 261 263 265 269 272 274 276 276 277 283 287 293 291 289 285 281 279 284 290 291 289 284 282 273 274 282 287 287 290 293 291 284 277 278 216 229 218 219 215 196 221 229 231 230 228 228 225 218 212 207 205 203 201 198 197 196
237 240 240 247 239 224 220 222 216 221 224 231 238 245 251 257 263 270 268 267 267 269 271 272 274 275 280 282 288 289 290 291 297 299 297 294 295 296 300 298 296 276 285 274 273 280 279 285 286 285 283 282 281 268 255 211 187 177 209 223 224 224 227 229 227 218 214 211 206 203 199 197 195 196
233 237 241 240 241 239 237 240 220 214 221 226 231 238 241 242 245 248 255 263 267 266 269 269 270 278 279 286 288 289 291 294 294 293 292 291 290 291 291 288 286 295 294 291 289 285 280 281 281 286 286 283 281 277 273 250 180 185 203 222 222 218 227 228 225 218 215 215 209 203 199 197 196 195
232 234 237 241 239 243 220 227 242 247 224 213 225 231 236 243 243 244 244 245 250 262 265 269 272 272 278 278 281 289 294 297 293 294 289 285 283 283 283 284 289 294 300 295 277 281 285 287 279 280 283 291 286 273 251 227 192 187 197 218 230 227 226 225 223 217 214 214 211 207 200 198 197 195
231 231 234 236 239 238 235 236 236 237 242 243 218 220 229 237 233 228 234 238 239 239 252 262 269 269 272 277 284 288 287 287 288 291 288 291 289 288 284 291 292 289 290 283 284 280 280 278 285 282 285 285 284 274 262 234 191 191 200 212 225 230 225 222 219 215 212 210 209 208 204 199 197 194
236 234 233 238 243 242 239 237 233 237 239 241 252 257 252 240 241 239 231 221 220 222 225 237 246 262 267 270 268 264 263 264 268 279 292 295 292 288 289 286 280 283 277 264 260 273 281 285 284 279 287 290 286 288 290 253 196 193 199 210 221 228 230 225 217 213 210 209 208 208 205 203 197 194
235 235 237 239 242 243 243 235 220 228 243 254 260 260 260 266 266 263 254 252 257 257 248 232 249 261 264 277 281 288 290 289 287 290 291 294 291 292 294 293 295 290 290 288 289 287 288 291 291 291 287 290 286 287 281 280 209 195 200 209 218 226 231 227 220 213 208 207 207 206 204 203 200 195
234 234 233 234 242 245 243 235 213 206 214 246 253 259 266 269 272 273 278 233 219 227 235 248 251 249 254 259 264 266 267 266 279 293 289 281 283 285 287 292 294 293 302 303 297 294 291 294 294 292 293 291 287 283 282 280 245 196 201 207 215 223 229 229 218 213 206 205 205 204 202 200 200 196
233 232 228 234 239 245 246 242 219 199 190 234 252 260 265 265 264 267 268 275 243 209 228 237 243 253 261 263 266 268 267 264 258 242 261 277 290 286 287 288 292 293 296 293 299 296 291 299 294 294 296 294 285 281 282 280 276 191 205 207 212 219 226 231 222 211 207 204 202 201 199 199 195 191
232 235 226 221 231 240 249 251 240 205 194 238 251 258 263 264 265 268 276 273 278 285 261 234 229 245 244 247 246 247 245 245 244 233 245 269 279 283 290 293 296 296 295 315 339 303 298 298 297 302 302 293 289 290 288 290 285 281 222 210 223 223 225 231 229 216 210 205 203 200 195 193 184 186
229 231 235 216 209 227 238 247 249 235 199 233 249 258 261 266 269 273 265 278 318 320 312 305 296 293 290 277 255 235 234 232 227 226 233 246 269 280 283 290 292 292 295 301 310 299 296 296 294 300 295 298 301 300 298 291 286 290 289 241 213 219 225 237 238 228 216 208 205 200 194 186 179 186
233 231 230 243 200 206 222 233 240 245 231 224 246 251 259 263 279 323 293 299 307 295 292 290 280 280 285 291 291 285 292 296 284 243 229 249 265 271 280 287 290 287 292 310 8 317 303 302 298 302 295 292 292 296 298 298 292 288 277 271 262 246 221 225 230 228 212 217 211 201 193 184 186 192
234 235 236 240 200 191 210 222 231 238 240 220 225 244 252 262 282 310 298 295 286 282 286 285 286 288 290 295 297 297 291 284 280 298 308 310 311 305 305 304 300 295 296 310 333 310 305 301 304 307 302 300 297 298 301 298 297 292 289 280 272 267 261 247 218 220 213 194 204 203 196 189 189 197
238 237 239 241 204 176 197 209 220 229 234 203 226 236 245 265 326 309 269 273 277 274 276 282 285 289 284 285 284 280 301 314 329 318 315 309 299 293 290 289 291 292 297 308 311 309 304 299 305 304 304 303 302 304 301 305 310 315 301 295 291 281 265 262 256 250 223 190 203 198 200 195 196 198
237 239 241 242 156 171 183 197 208 223 211 227 228 231 269 280 266 269 264 255 252 261 272 275 274 275 284 281 284 313 336 322 320 307 300 295 296 296 296 295 294 293 296 300 303 303 300 299 302 301 300 304 303 301 304 303 299 303 302 298 287 278 271 254 253 237 206 167 149 144 175 188 202 201
248 58 68 77 85 103 110 132 164 174 207 231 266 82 149 207 235 222 248 263 265 252 251 258 273 282 272 298 318 341 321 303 292 289 298 308 300 295 297 302 302 299 293 300 310 317 319 318 315 315 309 303 300 300 300 300 305 305 307 307 300 286 240 246 244 238 222 204 182 172 179 189 189 189
53 71 81 89 104 110 120 166 208 259 142 143 146 152 177 213 234 242 246 252 245 250 261 274 276 292 316 319 338 312 288 299 319 325 321 318 317 326 323 318 310 307 311 321 322 330 332 325 319 314 308 303 301 300 300 301 303 307 305 299 301 297 256 246 248 240 228 209 214 203 200 192 188 175
183 98 127 77 64 70 86 46 40 78 121 153 169 189 195 224 241 236 234 239 252 262 280 278 287 303 318 318 286 300 321 322 341 347 331 323 327 332 332 317 311 320 330 333 340 345 336 329 325 320 312 307 301 297 302 305 302 304 303 302 304 294 293 275 245 243 232 199 217 220 208 196 184 191
218 192 113 150 179 169 193 202 223 234 237 240 238 241 247 240 234 38 40 23 263 248 263 296 305 292 289 297 341 332 339 352 348 346 338 336 328 333 324 317 325 331 334 336 336 348 351 348 338 329 319 314 310 310 308 305 303 311 316 320 319 315 308 297 277 255 234 203 196 206 191 190 178 182
187 201 192 210 223 233 233 234 235 235 236 235 244 246 231 221 204 200 200 182 173 170 239 245 277 287 319 349 342 347 341 351 334 347 338 330 331 321 320 322 331 336 333 334 342 352 0 347 345 334 327 320 312 319 337 349 359 354 343 338 333 329 325 317 304 291 246 207 214 207 197 193 184 180
180 188 211 220 219 221 225 226 227 223 218 224 215 196 128 246 213 174 183 193 139 133 226 242 260 17 341 359 357 346 341 334 327 337 326 330 331 324 332 335 338 339 334 337 351 353 351 348 345 341 331 327 327 36 29 18 357 357 345 331 330 325 325 321 319 309 254 197 203 189 172 163 155 154
189 193 207 211 215 214 218 217 210 205 201 186 172 182 185 190 149 194 196 97 96 175 209 241 22 28 14 360 0 335 330 326 320 336 341 333 330 333 337 338 338 338 343 349 350 354 351 353 351 347 343 342 345 78 66 37 4 1 347 340 331 327 324 324 323 316 266 210 184 169 147 136 144 135
189 197 199 198 181 176 180 186 184 184 181 174 176 175 183 171 158 182 114 87 257 181 188 60 51 28 6 358 337 315 317 317 315 341 335 346 347 343 342 344 340 344 345 350 349 354 358 356 358 354 350 350 351 347 10 64 58 12 2 342 334 327 320 323 320 313 274 209 173 148 152 156 153 145
158 107 103 103 141 167 169 167 173 186 167 157 160 170 170 162 149 112 93 165 197 150 45 317 58 2 314 303 289 285 309 317 335 331 339 350 353 347 345 347 349 346 342 345 347 357 355 1 360 357 352 353 354 346 344 348 54 65 23 349 336 330 326 326 326 345 4 357 148 113 136 142 142 139
165 171 163 152 151 151 146 149 157 152 140 141 134 139 149 114 107 115 146 181 146 194 171 220 116 233 262 264 292 325 314 337 326 332 347 356 0 355 353 345 346 346 339 347 359 3 4 3 1 358 355 352 343 344 338 342 348 27 41 7 337 331 338 343 4 13 45 43 67 81 100 116 127 129
138 127 74 124 131 137 136 135 146 141 134 137 138 138 143 138 136 158 166 112 65 354 192 222 211 270 266 269 288 293 327 349 338 352 358 7 11 350 353 340 339 341 338 356 359 7 8 7 5 0 358 353 348 340 336 335 357 352 15 19 352 347 1 356 16 50 81 84 85 81 76 85 88 106
145 146 131 115 95 94 104 119 121 125 124 117 129 128 141 154 163 155 140 136 132 173 271 210 224 251 247 285 303 299 303 308 335 354 359 351 12 350 359 332 326 336 345 358 0 9 13 12 8 6 0 2 349 346 341 356 2 5 9 20 15 21 11 12 32 64 86 93 104 105 108 112 120 122
142 141 143 141 132 131 130 132 128 125 116 114 110 117 161 114 204 114 69 63 147 214 225 215 270 296 309 313 282 308 325 345 348 355 355 330 337 333 324 299 316 346 351 7 3 11 18 19 358 219 349 9 7 1 12 11 11 11 16 26 24 27 33 37 41 67 91 100 107 113 121 126 126 126
131 123 121 122 126 130 126 117 113 115 120 139 156 159 162 178 111 82 138 180 227 229 257 254 257 260 266 259 283 280 287 328 348 344 343 338 340 327 261 325 343 344 3 4 7 11 25 29 350 6 18 14 14 16 20 15 17 16 19 26 36 38 39 45 50 48 45 62 116 115 111 115 112 117
87 93 77 64 60 72 82 77 66 87 111 114 142 182 197 195 169 190 214 180 222 231 242 214 262 281 292 282 289 291 286 296 320 321 311 320 328 330 336 355 342 339 1 358 7 6 16 23 10 15 25 20 19 19 23 28 30 30 31 35 41 44 54 55 53 49 43 34 28 62 80 120 140 135
87 86 81 79 78 68 65 63 66 64 82 96 105 123 201 207 218 236 258 223 243 277 294 271 263 261 268 282 288 276 262 303 304 293 298 306 295 305 317 336 327 330 346 1 353 20 7 13 17 11 21 23 22 20 21 19 31 35 41 48 38 41 53 60 66 61 52 38 20 38 63 67 69 82
82 81 78 74 74 69 65 64 65 66 65 74 88 94 102 126 188 207 17 317 291 291 271 277 280 284 274 274 276 274 287 284 263 259 272 271 284 284 292 315 338 321 338 359 350 355 359 358 13 14 19 24 28 24 28 23 20 32 35 32 34 36 37 41 59 54 52 53 19 22 58 63 74 85